DW1384 Weather Reports


time (UTC)temp
C
wind
direction
speed
KPH
gust
KPH
rain 1hr
cm
rain 24hr
cm
rain mn
cm
humidity
%
barometer
mb
20260510160537 20 45 0.0 0.0 0.00 0.00 0.00 53 1008.5
20260510160050 20 50 0.0 0.0 0.00 0.00 0.00 52 1008.6
20260510155803 20 24 0.0 0.0 0.00 0.00 0.00 51 1008.8
20260510155256 20 47 0.0 0.0 0.00 0.00 0.00 53 1008.7
20260510154757 20 46 0.0 0.0 0.00 0.00 0.00 52 1008.9
20260510154037 20 45 0.0 0.0 0.00 0.00 0.00 51 1009.0
20260510153539 20 325 0.0 0.0 0.00 0.00 0.00 51 1009.0
20260510153037 21 309 0.0 0.0 0.00 0.00 0.00 51 1009.0
20260510152537 20 39 0.0 0.0 0.00 0.00 0.00 51 1009.1
20260510152037 20 343 0.0 0.0 0.00 0.00 0.00 51 1009.2
20260510151550 20 321 0.0 0.0 0.00 0.00 0.00 51 1009.2
20260510151052 21 45 0.0 0.0 0.00 0.00 0.00 50 1009.3
20260510150537 21 57 0.0 0.0 0.00 0.00 0.00 50 1009.4
20260510150052 21 16 0.0 0.0 0.00 0.00 0.00 51 1009.4
20260510145537 21 348 0.0 0.0 0.00 0.00 0.00 50 1009.4
20260510145038 21 14 0.0 0.0 0.00 0.00 0.00 50 1009.5
20260510144535 21 3 0.0 0.0 0.00 0.00 0.00 51 1009.5
20260510144301 20 23 0.0 0.0 0.00 0.00 0.00 52 1009.5
20260510143536 20 51 0.0 0.0 0.00 0.00 0.00 52 1009.6
20260510143035 20 353 0.0 0.0 0.00 0.00 0.00 51 1009.7
20260510142533 20 1 0.0 0.0 0.00 0.00 0.00 52 1009.7
20260510142034 20 21 0.0 0.0 0.00 0.00 0.00 53 1009.7
20260510141533 20 277 0.0 0.0 0.00 0.00 0.00 54 1009.8
20260510141033 20 319 0.0 0.0 0.00 0.00 0.00 53 1009.9
20260510140532 20 328 0.0 0.0 0.00 0.00 0.00 54 1009.9
20260510140031 20 314 0.0 0.0 0.00 0.00 0.00 53 1009.9
20260510135531 19 26 0.0 0.0 0.00 0.00 0.00 54 1010.0
20260510135031 19 359 0.0 0.0 0.00 0.00 0.00 55 1010.1
20260510134532 19 280 0.0 0.0 0.00 0.00 0.00 55 1010.2
20260510134250 19 301 0.0 0.0 0.00 0.00 0.00 54 1010.2
20260510133724 19 285 0.0 0.0 0.00 0.00 0.00 55 1010.2
20260510133608 19 326 0.0 0.0 0.00 0.00 0.00 54 1010.2
20260510132528 19 309 0.0 0.0 0.00 0.00 0.00 54 1010.3
20260510132027 19 313 0.0 0.0 0.00 0.00 0.00 54 1010.2
20260510131527 19 294 0.0 0.0 0.00 0.00 0.00 53 1010.4
20260510131027 20 321 0.0 0.0 0.00 0.00 0.00 53 1010.3
20260510130527 19 335 0.0 0.0 0.00 0.00 0.00 54 1010.3
20260510130028 19 309 0.0 0.0 0.00 0.00 0.00 54 1010.5
20260510125754 19 307 0.0 0.0 0.00 0.00 0.00 53 1010.6
20260510125027 19 307 0.0 0.0 0.00 0.00 0.00 53 1010.6
20260510124748 19 298 0.0 0.0 0.00 0.00 0.00 54 1010.6
20260510124020 19 318 0.0 0.0 0.00 0.00 0.00 54 1010.6
20260510123516 19 281 0.0 0.0 0.00 0.00 0.00 52 1010.7
20260510123015 20 307 0.0 0.0 0.00 0.00 0.00 53 1010.7
20260510122733 20 332 0.0 0.0 0.00 0.00 0.00 52 1010.7
20260510122234 20 14 0.0 0.0 0.00 0.00 0.00 54 1010.8
20260510121517 20 321 0.0 0.0 0.00 0.00 0.00 53 1010.9
20260510121234 20 334 0.0 0.0 0.00 0.00 0.00 53 1010.9
20260510120517 19 305 0.0 0.0 0.00 0.00 0.00 55 1011.0
20260510120459 19 298 0.0 0.0 0.00 0.00 0.00 54 1011.1
20260510115513 20 286 0.0 0.0 0.00 0.00 0.00 54 1011.1
20260510115011 20 315 0.0 0.0 0.00 0.00 0.00 54 1011.2
20260510114511 20 317 0.0 0.0 0.00 0.00 0.00 54 1011.3
20260510114011 19 313 0.0 0.0 0.00 0.00 0.00 54 1011.3
20260510113510 19 328 0.0 0.0 0.00 0.00 0.00 55 1011.3
20260510113007 19 322 0.0 0.0 0.00 0.00 0.00 55 1011.4
20260510112516 19 348 0.0 0.0 0.00 0.00 0.00 55 1011.4
20260510112005 19 314 0.0 0.0 0.00 0.00 0.00 55 1011.4
20260510111505 19 313 0.0 0.0 0.00 0.00 0.00 55 1011.4
20260510111004 18 336 0.0 0.0 0.00 0.00 0.00 56 1011.5
20260510110511 19 301 0.0 0.0 0.00 0.00 0.00 55 1011.5
20260510105952 18 311 0.0 0.0 0.00 0.00 0.00 56 1011.5
20260510105719 18 311 0.0 0.0 0.00 0.00 0.00 56 1011.5
20260510104941 18 311 0.0 0.0 0.00 0.00 0.00 57 1011.7
20260510104434 18 309 0.0 0.0 0.00 0.00 0.00 57 1011.7
20260510103929 18 307 0.0 0.0 0.00 0.00 0.00 55 1011.8
20260510103422 19 309 0.0 0.0 0.00 0.00 0.00 56 1011.7
20260510102916 19 299 0.0 0.0 0.00 0.00 0.00 54 1011.8
20260510102410 19 7 0.0 0.0 0.00 0.00 0.00 53 1011.8
20260510102130 20 310 0.0 0.0 0.00 0.00 0.00 52 1011.9
20260510101358 20 33 0.0 0.0 0.00 0.00 0.00 52 1011.9
20260510100852 20 11 0.0 0.0 0.00 0.00 0.00 51 1011.9
20260510100347 20 348 0.0 0.0 0.00 0.00 0.00 54 1012.0
20260510095840 20 12 0.0 0.0 0.00 0.00 0.00 54 1012.0
20260510095334 20 333 0.0 0.0 0.00 0.00 0.00 55 1012.0
20260510094830 18 14 0.0 0.0 0.00 0.00 0.00 58 1012.1
20260510094323 18 278 0.0 0.0 0.00 0.00 0.00 57 1012.0
20260510093816 18 307 0.0 0.0 0.00 0.00 0.00 55 1012.1
20260510093311 19 332 0.0 0.0 0.00 0.00 0.00 56 1012.2
20260510092804 18 43 0.0 0.0 0.00 0.00 0.00 58 1012.3
20260510092258 18 218 0.0 0.0 0.00 0.00 0.00 58 1012.4
20260510092018 18 328 0.0 0.0 0.00 0.00 0.00 58 1012.4
20260510091246 18 43 0.0 0.0 0.00 0.00 0.00 59 1012.4
20260510090740 17 264 0.0 0.0 0.00 0.00 0.00 58 1012.4
20260510090234 18 13 0.0 0.0 0.00 0.00 0.00 58 1012.4
20260510085728 18 315 0.0 0.0 0.00 0.00 0.00 59 1012.5
20260510085223 18 20 0.0 0.0 0.00 0.00 0.00 60 1012.5
20260510084717 17 294 0.0 0.0 0.00 0.00 0.00 62 1012.5
20260510084210 17 305 0.0 0.0 0.00 0.00 0.00 62 1012.7
20260510083706 18 304 0.0 0.0 0.00 0.00 0.00 61 1012.8
20260510083200 18 321 0.0 0.0 0.00 0.00 0.00 63 1012.8
20260510082652 18 322 0.0 0.0 0.00 0.00 0.00 64 1012.9
20260510082147 17 331 0.0 0.0 0.00 0.00 0.00 69 1012.9
20260510081642 17 112 0.0 0.0 0.00 0.00 0.00 71 1012.9
20260510081134 16 114 0.0 0.0 0.00 0.00 0.00 74 1012.9
20260510080629 15 114 0.0 0.0 0.00 0.00 0.00 76 1012.9
20260510080122 15 171 0.0 0.0 0.00 0.00 0.00 77 1013.0
20260510075616 14 171 0.0 0.0 0.00 0.00 0.00 78 1013.0
20260510075608 14 171 0.0 0.0 0.00 0.00 0.00 79 1013.0
20260510074604 13 171 0.0 0.0 0.00 0.00 0.00 80 1013.0
20260510074058 13 168 0.0 0.0 0.00 0.00 0.00 81 1013.1
20260510073554 13 172 0.0 0.0 0.00 0.00 0.00 82 1013.1
20260510073046 13 155 0.0 0.0 0.00 0.00 0.00 83 1013.1
20260510072540 12 159 0.0 0.0 0.00 0.00 0.00 83 1013.1
20260510072034 12 166 0.0 0.0 0.00 0.00 0.00 84 1013.2
20260510071530 12 135 0.0 0.0 0.00 0.00 0.00 84 1013.2
20260510071023 11 117 0.0 0.0 0.00 0.00 0.00 85 1013.2
20260510070516 11 126 0.0 0.0 0.00 0.00 0.00 86 1013.2
20260510070248 11 117 0.0 0.0 0.00 0.00 0.00 86 1013.3
20260510065514 10 110 0.0 0.0 0.00 0.00 0.00 87 1013.3
20260510065238 10 119 0.0 0.0 0.00 0.00 0.00 87 1013.3
20260510064513 10 125 0.0 0.0 0.00 0.00 0.00 88 1013.3
20260510064014 10 130 0.0 0.0 0.00 0.00 0.00 88 1013.3
20260510063511 9 122 0.0 0.0 0.00 0.00 0.00 88 1013.3
20260510063011 8 116 0.0 0.0 0.00 0.00 0.00 89 1013.3
20260510062508 8 119 0.0 0.0 0.00 0.00 0.00 89 1013.3
20260510062018 8 118 0.0 0.0 0.00 0.00 0.00 89 1013.4
20260510061725 8 134 0.0 0.0 0.00 0.00 0.00 90 1013.4
20260510061002 7 123 0.0 0.0 0.00 0.00 0.00 90 1013.4
20260510060504 7 118 0.0 0.0 0.00 0.00 0.00 90 1013.4
20260510060003 7 115 0.0 0.0 0.00 0.00 0.00 90 1013.4
20260510055500 7 161 0.0 0.0 0.00 0.00 0.00 90 1013.4
20260510055000 7 163 0.0 0.0 0.00 0.00 0.00 90 1013.5
20260510054500 7 158 0.0 0.0 0.00 0.00 0.00 90 1013.5
20260510053959 6 151 0.0 0.0 0.00 0.00 0.00 90 1013.5
20260510053459 6 116 0.0 0.0 0.00 0.00 0.00 90 1013.5
20260510052952 6 112 0.0 0.0 0.00 0.00 0.00 90 1013.5
20260510052453 6 112 0.0 0.0 0.00 0.00 0.00 90 1013.6
20260510051953 6 111 0.0 0.0 0.00 0.00 0.00 90 1013.7
20260510051451 6 110 0.0 0.0 0.00 0.00 0.00 90 1013.7
20260510050948 6 110 0.0 0.0 0.00 0.00 0.00 90 1013.7
20260510050448 6 109 0.0 0.0 0.00 0.00 0.00 90 1013.7
20260510045949 5 109 0.0 0.0 0.00 0.00 0.00 90 1013.7
20260510045449 5 109 0.0 0.0 0.00 0.00 0.00 90 1013.7
20260510044946 5 109 0.0 0.0 0.00 0.00 0.00 90 1013.7
20260510044446 5 109 0.0 0.0 0.00 0.00 0.00 90 1013.8
20260510043945 5 124 0.0 0.0 0.00 0.00 0.00 90 1013.8
20260510043443 5 124 0.0 0.0 0.00 0.00 0.00 90 1013.8
20260510042955 5 125 0.0 0.0 0.00 0.00 0.00 90 1013.8
20260510042438 5 125 0.0 0.0 0.00 0.00 0.00 90 1013.8
20260510041925 -17 125 0.0 0.0 0.00 0.00 0.00 1013.9
20260510041644 -17 0.0 0.0 0.00 0.00 0.00 1013.9
20260510040918 -17 0.0 0.0 0.00 0.00 0.00 1013.9
20260510040325 -17 0.0 0.0 0.00 0.00 0.00 1014.0
20260510035821 -17 0.0 0.0 0.00 0.00 0.00 1014.1
20260510035455 -17 0.0 0.0 0.00 0.00 0.00 1014.0
20260510034721 -17 0.0 0.0 0.00 0.00 0.00 1014.1
20260510034130 -17 0.0 0.0 0.00 0.00 0.00 1014.3
20260510033532 -17 0.0 0.0 0.00 0.00 0.00 1014.3
20260510033025 -17 0.0 0.0 0.00 0.00 0.00 1014.3
20260510032525 -17 0.0 0.0 0.00 0.00 0.00 1014.4
20260510032021 -17 0.0 0.0 0.00 0.00 0.00 1014.4
20260510032011 -17 0.0 0.0 0.00 0.00 0.00 1014.4
20260510031020 -17 0.0 0.0 0.00 0.00 0.00 1014.5
20260510030427 -17 0.0 0.0 0.00 0.00 0.00 1014.4
20260510025925 -17 128 0.0 0.0 0.00 0.00 0.00 1014.4
20260510025426 -17 128 0.0 0.0 0.00 0.00 0.00 1014.5
20260510024926 5 128 0.0 0.0 0.00 0.00 0.00 89 1014.8
20260510024402 5 128 0.0 0.0 0.00 0.00 0.00 89 1014.6
20260510023902 5 122 0.0 0.0 0.00 0.00 0.00 89 1014.6
20260510023403 5 120 0.0 0.0 0.00 0.00 0.00 89 1014.8
20260510022901 5 122 0.0 0.0 0.00 0.00 0.00 89 1014.8
20260510022401 5 122 0.0 0.0 0.00 0.00 0.00 89 1014.7
20260510021858 5 122 0.0 0.0 0.00 0.00 0.00 89 1014.8
20260510021356 5 122 0.0 0.0 0.00 0.00 0.00 89 1014.8
20260510020857 5 122 0.0 0.0 0.00 0.00 0.00 89 1014.8
20260510020850 5 122 0.0 0.0 0.00 0.00 0.00 89 1014.8
20260510015859 5 122 0.0 0.0 0.00 0.00 0.00 89 1014.9
20260510015626 5 122 0.0 0.0 0.00 0.00 0.00 89 1014.8
20260510014856 5 122 0.0 0.0 0.00 0.00 0.00 89 1014.8
20260510014357 5 122 0.0 0.0 0.00 0.00 0.00 89 1014.7
20260510013857 5 122 0.0 0.0 0.00 0.00 0.00 89 1014.8
20260510013354 5 122 0.0 0.0 0.00 0.00 0.00 89 1014.8
20260510013336 6 122 0.0 0.0 0.00 0.00 0.00 89 1014.8
20260510012352 6 122 0.0 0.0 0.00 0.00 0.00 89 1014.8
20260510011854 6 122 0.0 0.0 0.00 0.00 0.00 89 1014.7
20260510011408 6 122 0.0 0.0 0.00 0.00 0.00 89 1014.8
20260510010852 6 122 0.0 0.0 0.00 0.00 0.00 89 1014.8
20260510010354 6 122 0.0 0.0 0.00 0.00 0.00 88 1014.7
20260510005855 6 122 0.0 0.0 0.00 0.00 0.00 89 1014.8
20260510005352 6 122 0.0 0.0 0.00 0.00 0.00 89 1014.7
20260510004850 6 122 0.0 0.0 0.00 0.00 0.00 88 1014.7
20260510004348 6 121 0.0 0.0 0.00 0.00 0.00 88 1014.8
20260510003848 6 118 0.0 0.0 0.00 0.00 0.00 88 1014.8
20260510003349 6 118 0.0 0.0 0.00 0.00 0.00 88 1014.9
20260510002846 6 118 0.0 0.0 0.00 0.00 0.00 88 1014.9
20260510002346 6 121 0.0 0.0 0.00 0.00 0.00 88 1015.0
20260510002110 6 116 0.0 0.0 0.00 0.00 0.00 88 1015.0
20260510001346 6 115 0.0 0.0 0.00 0.00 0.00 88 1015.1
20260510001107 6 115 0.0 0.0 0.00 0.00 0.00 88 1015.3
20260510000349 6 115 0.0 0.0 0.00 0.00 0.00 88 1015.3
20260509235846 7 115 0.0 0.0 0.00 0.00 0.00 88 1015.4
20260509235608 7 115 0.0 0.0 0.00 0.00 0.00 88 1015.3
20260509234847 7 115 0.0 0.0 0.00 0.00 0.00 88 1015.4
20260509234346 7 115 0.0 0.0 0.00 0.00 0.00 88 1015.4
20260509233846 7 115 0.0 0.0 0.00 0.00 0.00 88 1015.5
20260509233348 7 115 0.0 0.0 0.00 0.00 0.00 87 1015.5
20260509232848 7 115 0.0 0.0 0.00 0.00 0.00 87 1015.6
20260509232610 7 115 0.0 0.0 0.00 0.00 0.00 87 1015.6
20260509231834 7 115 0.0 0.0 0.00 0.00 0.00 87 1015.6
20260509231336 7 114 0.0 0.0 0.00 0.00 0.00 87 1015.6
20260509230835 7 113 0.0 0.0 0.00 0.00 0.00 87 1015.7
20260509230334 7 112 0.0 0.0 0.00 0.00 0.00 87 1015.7
20260509225834 7 111 0.0 0.0 0.00 0.00 0.00 87 1015.7
20260509225557 8 111 0.0 0.0 0.00 0.00 0.00 87 1015.7
20260509224834 8 111 0.0 0.0 0.00 0.00 0.00 87 1015.7
20260509224600 8 111 0.0 0.0 0.00 0.00 0.00 87 1015.8
20260509223834 8 111 0.0 0.0 0.00 0.00 0.00 86 1015.9
20260509223334 8 111 0.0 0.0 0.00 0.00 0.00 86 1015.9
20260509222832 8 111 0.0 0.0 0.00 0.00 0.00 86 1015.9
20260509222334 8 111 0.0 0.0 0.00 0.00 0.00 86 1015.9
20260509221832 8 111 0.0 0.0 0.00 0.00 0.00 86 1015.8
20260509221332 8 111 0.0 0.0 0.00 0.00 0.00 86 1015.8
20260509220832 8 118 0.0 0.0 0.00 0.00 0.00 86 1015.8
20260509220334 8 118 0.0 0.0 0.00 0.00 0.00 85 1015.9
20260509220044 9 118 0.0 0.0 0.00 0.00 0.00 86 1015.9
20260509215323 9 118 0.0 0.0 0.00 0.00 0.00 85 1015.7
20260509214819 9 118 0.0 0.0 0.00 0.00 0.00 85 1015.5
20260509214313 9 118 0.0 0.0 0.00 0.00 0.00 85 1015.5
20260509213806 9 106 0.0 0.0 0.00 0.00 0.00 85 1015.7
20260509213301 10 97 0.0 0.0 0.00 0.00 0.00 85 1015.8
20260509213238 10 96 0.0 0.0 0.00 0.00 0.00 85 1015.7
20260509212517 10 95 0.0 0.0 0.00 0.00 0.00 84 1015.7
20260509211741 10 95 0.0 0.0 0.00 0.00 0.00 84 1015.7
20260509211241 10 95 0.0 0.0 0.00 0.00 0.00 84 1015.7
20260509210740 10 91 0.0 0.0 0.00 0.00 0.00 84 1015.6
20260509210240 10 89 0.0 0.0 0.00 0.00 0.00 84 1015.7
20260509205737 10 89 0.0 0.0 0.00 0.00 0.00 83 1015.7
20260509205237 10 89 0.0 0.0 0.00 0.00 0.00 83 1015.7
20260509204738 11 89 0.0 0.0 0.00 0.00 0.00 83 1015.7
20260509204500 11 89 0.0 0.0 0.00 0.00 0.00 82 1015.7
20260509203734 11 88 0.0 0.0 0.00 0.00 0.00 82 1015.7
20260509203233 11 88 0.0 0.0 0.00 0.00 0.00 81 1015.7
20260509202731 12 88 0.0 0.0 0.00 0.00 0.00 81 1015.6
20260509202231 12 88 0.0 0.0 0.00 0.00 0.00 81 1015.6
20260509201732 12 88 0.0 0.0 0.00 0.00 0.00 81 1015.7
20260509201233 12 103 0.0 0.0 0.00 0.00 0.00 80 1015.8
20260509200953 12 104 0.0 0.0 0.00 0.00 0.00 80 1015.7
20260509200231 12 113 0.0 0.0 0.00 0.00 0.00 79 1015.7
20260509195727 12 113 0.0 0.0 0.00 0.00 0.00 78 1015.7
20260509195710 12 113 0.0 0.0 0.00 0.00 0.00 77 1015.7
20260509194726 13 81 0.0 0.0 0.00 0.00 0.00 76 1015.6
20260509194227 13 81 0.0 0.0 0.00 0.00 0.00 76 1015.5
20260509193726 13 95 0.0 0.0 0.00 0.00 0.00 75 1015.4
20260509193226 13 95 0.0 0.0 0.00 0.00 0.00 74 1015.4
20260509192726 14 97 0.0 0.0 0.00 0.00 0.00 73 1015.5
20260509192225 14 97 0.0 0.0 0.00 0.00 0.00 73 1015.4
20260509191727 14 97 0.0 0.0 0.00 0.00 0.00 72 1015.5
20260509191703 15 72 0.0 0.0 0.00 0.00 0.00 69 1015.4
20260509190953 16 68 0.0 0.0 0.00 0.00 0.00 67 1015.3
20260509190227 16 11 0.0 0.0 0.00 0.00 0.00 65 1015.0
20260509185722 17 11 0.0 0.0 0.00 0.00 0.00 63 1015.0
20260509185221 17 13 0.0 0.0 0.00 0.00 0.00 62 1014.9
20260509184721 17 275 0.0 0.0 0.00 0.00 0.00 62 1014.9
20260509184222 17 353 0.0 0.0 0.00 0.00 0.00 61 1014.9
20260509183722 17 321 0.0 0.0 0.00 0.00 0.00 59 1014.9
20260509183222 18 317 0.0 0.0 0.00 0.00 0.00 57 1014.8
20260509182723 18 22 0.0 0.0 0.00 0.00 0.00 56 1014.7
20260509182221 18 10 0.0 0.0 0.00 0.00 0.00 55 1014.8
20260509181723 18 10 0.0 0.0 0.00 0.00 0.00 55 1014.6
20260509181221 18 343 0.0 0.0 0.00 0.00 0.00 54 1014.6
20260509180735 18 287 0.0 0.0 0.00 0.00 0.00 52 1014.9
20260509180224 18 242 0.0 0.0 0.00 0.00 0.00 49 1014.8
20260509175721 18 210 0.0 0.0 0.00 0.00 0.00 48 1014.8
20260509175221 18 210 0.0 0.0 0.00 0.00 0.00 48 1014.7
20260509174721 19 210 0.0 0.0 0.00 0.00 0.00 52 1014.6
20260509174221 19 210 0.0 0.0 0.00 0.00 0.00 51 1014.6
20260509173721 19 210 0.0 0.0 0.00 0.00 0.00 46 1014.6
20260509173654 18 210 0.0 0.0 0.00 0.00 0.00 48 1014.6
20260509172722 18 199 0.0 0.0 0.00 0.00 0.00 48 1014.7
20260509172222 18 127 0.0 0.0 0.00 0.00 0.00 50 1014.8
20260509171722 18 127 0.0 0.0 0.00 0.00 0.00 51 1014.8
20260509171222 19 127 0.0 0.0 0.00 0.00 0.00 49 1014.8
20260509170941 19 127 0.0 0.0 0.00 0.00 0.00 47 1014.6
20260509170221 19 127 0.0 0.0 0.00 0.00 0.00 46 1014.7
20260509165721 19 127 0.0 0.0 0.00 0.00 0.00 46 1014.6
20260509165220 19 127 0.0 0.0 0.00 0.00 0.00 46 1014.6
20260509164720 19 127 0.0 0.0 0.00 0.00 0.00 44 1014.7
20260509164215 19 123 0.0 0.0 0.00 0.00 0.00 43 1014.6
20260509163715 19 164 0.0 0.0 0.00 0.00 0.00 44 1014.8
20260509163216 19 143 0.0 0.0 0.00 0.00 0.00 44 1014.8
20260509162717 20 178 0.0 0.0 0.00 0.00 0.00 43 1014.9
20260509162214 20 188 0.0 0.0 0.00 0.00 0.00 42 1015.0
20260509161713 20 158 0.0 0.0 0.00 0.00 0.00 43 1014.9
20260509161434 19 158 0.0 0.0 0.00 0.00 0.00 44 1014.9
20260509160935 19 161 0.0 0.0 0.00 0.00 0.00 44 1015.0